Time,TemperatureF,DewpointF,PressureIn,WindDirection,WindDirectionDegrees,WindSpeedMPH,WindSpeedGustMPH,Humidity,HourlyPrecipIn,Conditions,Clouds,dailyrainin,SoftwareType,DateUTC
2013-01-11 00:03:00,44.4,32.6,29.88,NW,315,3.1,3.1,63,0.00,,---,0.00,VWS V14.00,2013-01-11 08:03:00,
2013-01-11 00:09:00,44.4,32.6,29.88,NW,315,4.0,4.0,63,0.00,,---,0.00,VWS V14.00,2013-01-11 08:09:00,
2013-01-11 00:15:00,44.4,32.6,29.88,NNW,338,3.4,4.3,63,0.00,,---,0.00,VWS V14.00,2013-01-11 08:15:00,
2013-01-11 00:20:00,44.4,32.6,29.88,NNW,338,3.4,6.3,63,0.00,,---,0.00,VWS V14.00,2013-01-11 08:20:00,
2013-01-11 00:25:00,44.4,32.6,29.88,NW,315,3.6,5.4,63,0.00,,---,0.00,VWS V14.00,2013-01-11 08:25:00,
2013-01-11 00:31:00,44.2,32.5,29.88,NW,315,3.1,7.4,63,0.00,,---,0.00,VWS V14.00,2013-01-11 08:31:00,
2013-01-11 00:37:00,44.4,32.6,29.88,WNW,292,3.8,5.4,63,0.00,,---,0.00,VWS V14.00,2013-01-11 08:37:00,
2013-01-11 00:42:00,44.4,32.6,29.88,WNW,292,3.6,5.8,63,0.00,,---,0.00,VWS V14.00,2013-01-11 08:42:00,
2013-01-11 00:47:00,44.4,32.6,29.88,NNW,338,5.8,10.7,63,0.00,,---,0.00,VWS V14.00,2013-01-11 08:47:00,
2013-01-11 00:52:00,44.6,32.8,29.88,WNW,292,4.0,7.8,63,0.00,,---,0.00,VWS V14.00,2013-01-11 08:52:00,
2013-01-11 00:58:00,44.6,32.8,29.88,WNW,292,6.5,6.5,63,0.00,,---,0.00,VWS V14.00,2013-01-11 08:58:00,
2013-01-11 01:03:00,44.6,32.8,29.88,NNW,338,7.8,8.1,63,0.00,,---,0.00,VWS V14.00,2013-01-11 09:03:00,
2013-01-11 01:08:00,44.6,32.8,29.88,NNW,338,6.7,9.0,63,0.00,,---,0.00,VWS V14.00,2013-01-11 09:08:00,
2013-01-11 01:13:00,44.8,33.0,29.88,NNW,338,5.4,6.3,63,0.00,,---,0.00,VWS V14.00,2013-01-11 09:13:00,
2013-01-11 01:18:00,44.6,32.8,29.88,NNW,338,10.1,10.3,63,0.00,,---,0.00,VWS V14.00,2013-01-11 09:18:00,
2013-01-11 01:24:00,44.6,32.8,29.88,WNW,292,9.4,9.4,63,0.00,,---,0.00,VWS V14.00,2013-01-11 09:24:00,
2013-01-11 01:29:00,44.6,33.2,29.88,WNW,292,4.9,4.9,64,0.00,,---,0.00,VWS V14.00,2013-01-11 09:29:00,
2013-01-11 01:34:00,44.6,33.2,29.88,NNW,338,8.5,8.5,64,0.00,,---,0.00,VWS V14.00,2013-01-11 09:34:00,
2013-01-11 01:39:00,44.6,33.2,29.88,WNW,292,4.9,4.9,64,0.00,,---,0.00,VWS V14.00,2013-01-11 09:39:00,
2013-01-11 01:45:00,44.6,33.2,29.88,NNW,338,5.8,6.3,64,0.00,,---,0.00,VWS V14.00,2013-01-11 09:45:00,
2013-01-11 01:50:00,44.6,33.2,29.88,NW,315,8.7,10.1,64,0.00,,---,0.00,VWS V14.00,2013-01-11 09:50:00,
2013-01-11 01:56:00,44.6,33.2,29.88,NW,315,3.1,9.6,64,0.00,,---,0.00,VWS V14.00,2013-01-11 09:56:00,
2013-01-11 02:01:00,44.6,33.2,29.88,West,270,3.6,7.2,64,0.00,,---,0.00,VWS V14.00,2013-01-11 10:01:00,
2013-01-11 02:07:00,44.6,33.2,29.88,NW,315,10.7,10.7,64,0.00,,---,0.00,VWS V14.00,2013-01-11 10:07:00,
2013-01-11 02:13:00,44.8,33.4,29.88,WNW,292,9.6,9.6,64,0.00,,---,0.00,VWS V14.00,2013-01-11 10:13:00,
2013-01-11 02:18:00,44.8,33.4,29.88,NW,315,4.9,4.9,64,0.00,,---,0.00,VWS V14.00,2013-01-11 10:18:00,
2013-01-11 02:23:00,44.8,33.4,29.88,NW,315,5.4,5.8,64,0.00,,---,0.00,VWS V14.00,2013-01-11 10:23:00,
2013-01-11 02:28:00,44.8,33.4,29.88,NNW,338,3.8,5.4,64,0.00,,---,0.00,VWS V14.00,2013-01-11 10:28:00,
2013-01-11 02:34:00,44.6,33.2,29.88,WNW,292,5.6,6.5,64,0.00,,---,0.00,VWS V14.00,2013-01-11 10:34:00,
2013-01-11 02:39:00,44.6,33.2,29.88,WNW,292,2.9,2.9,64,0.00,,---,0.00,VWS V14.00,2013-01-11 10:39:00,
2013-01-11 02:44:00,44.6,33.6,29.88,WNW,292,2.5,3.6,65,0.00,,---,0.00,VWS V14.00,2013-01-11 10:44:00,
2013-01-11 02:50:00,44.4,33.4,29.88,WNW,292,0.0,1.6,65,0.00,,---,0.00,VWS V14.00,2013-01-11 10:50:00,
2013-01-11 02:55:00,44.2,33.6,29.88,WNW,292,2.0,2.0,66,0.00,,---,0.00,VWS V14.00,2013-01-11 10:55:00,
2013-01-11 03:00:00,44.1,33.1,29.88,WNW,292,4.0,4.0,65,0.00,,---,0.00,VWS V14.00,2013-01-11 11:00:00,
2013-01-11 03:05:00,44.1,33.1,29.88,West,270,3.6,3.8,65,0.00,,---,0.00,VWS V14.00,2013-01-11 11:05:00,
2013-01-11 03:11:00,44.1,33.1,29.88,NW,315,5.8,5.8,65,0.00,,---,0.00,VWS V14.00,2013-01-11 11:11:00,
2013-01-11 03:16:00,44.1,33.1,29.88,NNW,338,3.1,4.3,65,0.00,,---,0.00,VWS V14.00,2013-01-11 11:16:00,
2013-01-11 03:21:00,44.1,33.1,29.88,WNW,292,4.9,4.9,65,0.00,,---,0.00,VWS V14.00,2013-01-11 11:21:00,
2013-01-11 03:27:00,44.1,33.1,29.88,WNW,292,6.0,6.0,65,0.00,,---,0.00,VWS V14.00,2013-01-11 11:27:00,
2013-01-11 03:33:00,44.1,33.1,29.88,NW,315,3.6,3.6,65,0.00,,---,0.00,VWS V14.00,2013-01-11 11:33:00,
2013-01-11 03:38:00,44.1,32.7,29.88,WNW,292,4.0,4.9,64,0.00,,---,0.00,VWS V14.00,2013-01-11 11:38:00,
2013-01-11 03:43:00,44.1,32.7,29.88,NNW,338,4.9,4.9,64,0.00,,---,0.00,VWS V14.00,2013-01-11 11:43:00,
2013-01-11 03:48:00,44.1,32.7,29.88,West,270,3.8,5.8,64,0.00,,---,0.00,VWS V14.00,2013-01-11 11:48:00,
2013-01-11 03:54:00,44.2,32.8,29.88,NNW,338,5.4,6.0,64,0.00,,---,0.00,VWS V14.00,2013-01-11 11:54:00,
2013-01-11 04:00:00,44.2,32.8,29.88,NNW,338,4.0,9.0,64,0.00,,---,0.00,VWS V14.00,2013-01-11 12:00:00,
2013-01-11 04:05:00,44.2,32.5,29.88,WNW,292,5.8,5.8,63,0.00,,---,0.00,VWS V14.00,2013-01-11 12:05:00,
2013-01-11 04:10:00,44.4,32.6,29.88,NW,315,3.4,4.3,63,0.00,,---,0.00,VWS V14.00,2013-01-11 12:10:00,
2013-01-11 04:15:00,44.6,32.8,29.88,NNW,338,3.4,7.4,63,0.00,,---,0.00,VWS V14.00,2013-01-11 12:15:00,
2013-01-11 04:21:00,44.6,32.8,29.88,NW,315,0.9,2.2,63,0.00,,---,0.00,VWS V14.00,2013-01-11 12:21:00,
2013-01-11 04:26:00,44.4,32.6,29.88,NW,315,0.0,0.0,63,0.00,,---,0.00,VWS V14.00,2013-01-11 12:26:00,
2013-01-11 04:31:00,44.1,32.3,29.88,SSE,158,0.0,0.0,63,0.00,,---,0.00,VWS V14.00,2013-01-11 12:31:00,
2013-01-11 04:36:00,43.7,32.0,29.88,WNW,292,2.0,3.4,63,0.00,,---,0.00,VWS V14.00,2013-01-11 12:36:00,
2013-01-11 04:41:00,43.5,31.8,29.88,SW,225,2.9,2.9,63,0.00,,---,0.00,VWS V14.00,2013-01-11 12:41:00,
2013-01-11 04:46:00,43.5,31.8,29.88,NW,315,2.7,3.1,63,0.00,,---,0.00,VWS V14.00,2013-01-11 12:46:00,
2013-01-11 04:52:00,43.3,32.0,29.88,WNW,292,2.9,2.9,64,0.00,,---,0.00,VWS V14.00,2013-01-11 12:52:00,
2013-01-11 04:57:00,43.3,32.0,29.88,WNW,292,4.3,6.3,64,0.00,,---,0.00,VWS V14.00,2013-01-11 12:57:00,
2013-01-11 05:02:00,43.5,32.2,29.88,NNW,338,5.8,5.8,64,0.00,,---,0.00,VWS V14.00,2013-01-11 13:02:00,
2013-01-11 05:07:00,43.5,32.2,29.88,NNW,338,4.0,4.0,64,0.00,,---,0.00,VWS V14.00,2013-01-11 13:07:00,
2013-01-11 05:12:00,43.5,32.2,29.88,NNW,338,1.6,2.7,64,0.00,,---,0.00,VWS V14.00,2013-01-11 13:12:00,
2013-01-11 05:18:00,43.3,32.0,29.88,NW,315,2.2,2.2,64,0.00,,---,0.00,VWS V14.00,2013-01-11 13:18:00,
2013-01-11 05:23:00,42.8,31.5,29.88,NNE,22,0.0,0.0,64,0.00,,---,0.00,VWS V14.00,2013-01-11 13:23:00,
2013-01-11 05:28:00,42.4,31.1,29.88,East,90,0.0,0.0,64,0.00,,---,0.00,VWS V14.00,2013-01-11 13:28:00,
2013-01-11 05:34:00,42.1,30.8,29.88,SSW,202,1.3,2.0,64,0.00,,---,0.00,VWS V14.00,2013-01-11 13:34:00,
2013-01-11 05:39:00,41.5,30.3,29.88,SW,225,0.0,1.1,64,0.00,,---,0.00,VWS V14.00,2013-01-11 13:39:00,
2013-01-11 05:44:00,41.4,30.5,29.88,NW,315,1.3,2.0,65,0.00,,---,0.00,VWS V14.00,2013-01-11 13:44:00,
2013-01-11 05:49:00,41.2,30.3,29.91,WSW,248,1.6,2.5,65,0.00,,---,0.00,VWS V14.00,2013-01-11 13:49:00,
2013-01-11 05:54:00,41.0,30.5,29.91,NW,315,0.9,2.2,66,0.00,,---,0.00,VWS V14.00,2013-01-11 13:54:00,
2013-01-11 05:59:00,41.0,30.5,29.91,WNW,292,0.0,1.3,66,0.00,,---,0.00,VWS V14.00,2013-01-11 13:59:00,
2013-01-11 06:04:00,41.0,30.9,29.91,South,180,0.0,0.0,67,0.00,,---,0.00,VWS V14.00,2013-01-11 14:04:00,
2013-01-11 06:09:00,40.6,30.5,29.91,SW,225,1.6,1.6,67,0.00,,---,0.00,VWS V14.00,2013-01-11 14:09:00,
2013-01-11 06:15:00,40.5,30.8,29.91,WNW,292,2.5,2.5,68,0.00,,---,0.00,VWS V14.00,2013-01-11 14:15:00,
2013-01-11 06:20:00,40.5,30.8,29.91,NW,315,1.6,2.7,68,0.00,,---,0.00,VWS V14.00,2013-01-11 14:20:00,
2013-01-11 06:25:00,40.5,30.8,29.91,NNW,338,2.7,2.7,68,0.00,,---,0.00,VWS V14.00,2013-01-11 14:25:00,
2013-01-11 06:30:00,40.5,31.1,29.91,NW,315,2.5,2.5,69,0.00,,---,0.00,VWS V14.00,2013-01-11 14:30:00,
2013-01-11 06:36:00,40.3,30.9,29.91,WNW,292,2.9,2.9,69,0.00,,---,0.00,VWS V14.00,2013-01-11 14:36:00,
2013-01-11 06:41:00,40.1,30.8,29.91,NW,315,2.0,2.0,69,0.00,,---,0.00,VWS V14.00,2013-01-11 14:41:00,
2013-01-11 06:46:00,39.7,30.4,29.91,NW,315,0.0,0.0,69,0.00,,---,0.00,VWS V14.00,2013-01-11 14:46:00,
2013-01-11 06:52:00,39.6,30.6,29.91,WNW,292,1.6,2.5,70,0.00,,---,0.00,VWS V14.00,2013-01-11 14:52:00,
2013-01-11 06:57:00,39.4,30.4,29.91,WNW,292,0.0,0.0,70,0.00,,---,0.00,VWS V14.00,2013-01-11 14:57:00,
2013-01-11 07:03:00,39.2,30.2,29.91,WNW,292,0.0,0.0,70,0.00,,---,0.00,VWS V14.00,2013-01-11 15:03:00,
2013-01-11 07:09:00,39.0,30.4,29.91,NW,315,1.6,1.6,71,0.00,,---,0.00,VWS V14.00,2013-01-11 15:09:00,
2013-01-11 07:14:00,39.0,30.4,29.91,SSW,202,0.0,0.0,71,0.00,,---,0.00,VWS V14.00,2013-01-11 15:14:00,
2013-01-11 07:19:00,38.8,30.6,29.91,SSE,158,0.0,0.0,72,0.00,,---,0.00,VWS V14.00,2013-01-11 15:19:00,
2013-01-11 07:24:00,38.7,30.4,29.91,SW,225,0.0,0.0,72,0.00,,---,0.00,VWS V14.00,2013-01-11 15:24:00,
2013-01-11 07:30:00,38.5,30.2,29.91,SSW,202,0.0,0.0,72,0.00,,---,0.00,VWS V14.00,2013-01-11 15:30:00,
2013-01-11 07:35:00,38.5,30.2,29.91,SSW,202,0.0,0.0,72,0.00,,---,0.00,VWS V14.00,2013-01-11 15:35:00,
2013-01-11 07:41:00,38.5,30.6,29.91,SSW,202,0.0,0.0,73,0.00,,---,0.00,VWS V14.00,2013-01-11 15:41:00,
2013-01-11 07:47:00,38.5,30.6,29.91,SSW,202,0.0,0.0,73,0.00,,---,0.00,VWS V14.00,2013-01-11 15:47:00,
2013-01-11 07:52:00,38.5,30.6,29.91,SW,225,0.0,0.0,73,0.00,,---,0.00,VWS V14.00,2013-01-11 15:52:00,
2013-01-11 07:57:00,38.5,30.9,29.91,SSW,202,0.0,0.0,74,0.00,,---,0.00,VWS V14.00,2013-01-11 15:57:00,
2013-01-11 08:02:00,38.5,30.9,29.94,SW,225,0.0,0.0,74,0.00,,---,0.00,VWS V14.00,2013-01-11 16:02:00,
2013-01-11 08:07:00,38.5,30.9,29.94,WSW,248,0.0,0.0,74,0.00,,---,0.00,VWS V14.00,2013-01-11 16:07:00,
2013-01-11 08:13:00,39.0,31.8,29.94,SW,225,0.0,0.0,75,0.00,,---,0.00,VWS V14.00,2013-01-11 16:13:00,
2013-01-11 08:18:00,39.2,32.0,29.94,NW,315,0.0,0.0,75,0.00,,---,0.00,VWS V14.00,2013-01-11 16:18:00,
2013-01-11 08:24:00,39.6,32.3,29.94,NW,315,0.0,1.6,75,0.00,,---,0.00,VWS V14.00,2013-01-11 16:24:00,
2013-01-11 08:30:00,39.9,32.7,29.94,NW,315,1.3,1.3,75,0.00,,---,0.00,VWS V14.00,2013-01-11 16:30:00,
2013-01-11 08:36:00,40.3,33.0,29.94,NW,315,0.9,1.6,75,0.00,,---,0.00,VWS V14.00,2013-01-11 16:36:00,
2013-01-11 08:41:00,40.6,33.7,29.94,NNW,338,0.0,0.0,76,0.00,,---,0.00,VWS V14.00,2013-01-11 16:41:00,
2013-01-11 08:46:00,41.5,34.5,29.94,NE,45,0.9,0.9,76,0.00,,---,0.00,VWS V14.00,2013-01-11 16:46:00,
2013-01-11 08:51:00,42.1,34.7,29.94,West,270,0.0,0.0,75,0.00,,---,0.00,VWS V14.00,2013-01-11 16:51:00,
2013-01-11 08:57:00,42.8,35.4,29.94,East,90,0.0,0.0,75,0.00,,---,0.00,VWS V14.00,2013-01-11 16:57:00,
2013-01-11 09:02:00,43.3,35.6,29.94,NNE,22,0.0,0.0,74,0.00,,---,0.00,VWS V14.00,2013-01-11 17:02:00,
2013-01-11 09:07:00,43.9,36.1,29.94,ENE,68,0.0,2.0,74,0.00,,---,0.00,VWS V14.00,2013-01-11 17:07:00,
2013-01-11 09:13:00,44.4,36.7,29.94,NNE,22,0.0,0.0,74,0.00,,---,0.00,VWS V14.00,2013-01-11 17:13:00,
2013-01-11 09:19:00,44.6,36.8,29.94,SSE,158,0.0,0.0,74,0.00,,---,0.00,VWS V14.00,2013-01-11 17:19:00,
2013-01-11 09:24:00,44.8,36.7,29.94,ESE,112,2.0,2.9,73,0.00,,---,0.00,VWS V14.00,2013-01-11 17:24:00,
2013-01-11 09:29:00,45.1,36.7,29.94,ESE,112,0.0,1.6,72,0.00,,---,0.00,VWS V14.00,2013-01-11 17:29:00,
2013-01-11 09:35:00,45.3,36.8,29.94,South,180,2.5,2.5,72,0.00,,---,0.00,VWS V14.00,2013-01-11 17:35:00,
2013-01-11 09:40:00,45.5,36.7,29.94,SW,225,0.0,0.0,71,0.00,,---,0.00,VWS V14.00,2013-01-11 17:40:00,
2013-01-11 09:46:00,45.7,36.5,29.94,West,270,0.0,0.0,70,0.00,,---,0.00,VWS V14.00,2013-01-11 17:46:00,
2013-01-11 09:52:00,46.0,36.8,29.97,NNE,22,0.0,0.0,70,0.00,,---,0.00,VWS V14.00,2013-01-11 17:52:00,
2013-01-11 09:57:00,46.4,36.8,29.97,SSE,158,0.0,0.0,69,0.00,,---,0.00,VWS V14.00,2013-01-11 17:57:00,
2013-01-11 10:02:00,46.8,37.1,29.94,NNE,22,0.0,2.0,69,0.00,,---,0.00,VWS V14.00,2013-01-11 18:02:00,
2013-01-11 10:07:00,46.9,37.7,29.94,NNE,22,1.1,1.1,70,0.00,,---,0.00,VWS V14.00,2013-01-11 18:07:00,
2013-01-11 10:13:00,47.3,37.3,29.94,South,180,0.0,1.1,68,0.00,,---,0.00,VWS V14.00,2013-01-11 18:13:00,
2013-01-11 10:18:00,47.7,37.6,29.94,NNW,338,0.0,0.0,68,0.00,,---,0.00,VWS V14.00,2013-01-11 18:18:00,
2013-01-11 10:23:00,48.0,38.0,29.94,NNW,338,0.0,0.0,68,0.00,,---,0.00,VWS V14.00,2013-01-11 18:23:00,
2013-01-11 10:28:00,48.4,37.9,29.94,SE,135,0.0,0.0,67,0.00,,---,0.00,VWS V14.00,2013-01-11 18:28:00,
2013-01-11 10:33:00,48.4,37.6,29.94,NW,315,2.7,2.7,66,0.00,,---,0.00,VWS V14.00,2013-01-11 18:33:00,
2013-01-11 10:39:00,48.7,37.9,29.94,WSW,248,0.0,0.0,66,0.00,,---,0.00,VWS V14.00,2013-01-11 18:39:00,
2013-01-11 10:44:00,49.1,38.2,29.94,NNW,338,0.0,0.0,66,0.00,,---,0.00,VWS V14.00,2013-01-11 18:44:00,
2013-01-11 10:49:00,49.6,38.8,29.94,NE,45,0.9,0.9,66,0.00,,---,0.00,VWS V14.00,2013-01-11 18:49:00,
2013-01-11 10:55:00,50.2,38.5,29.94,SE,135,1.6,2.0,64,0.00,,---,0.00,VWS V14.00,2013-01-11 18:55:00,
2013-01-11 11:00:00,50.4,38.7,29.94,WNW,292,0.0,2.5,64,0.00,,---,0.00,VWS V14.00,2013-01-11 19:00:00,
2013-01-11 11:06:00,50.5,38.4,29.94,West,270,2.7,4.0,63,0.00,,---,0.00,VWS V14.00,2013-01-11 19:06:00,
2013-01-11 11:12:00,51.3,39.1,29.94,WNW,292,4.3,7.4,63,0.00,,---,0.00,VWS V14.00,2013-01-11 19:12:00,
2013-01-11 11:17:00,51.3,38.3,29.94,WNW,292,5.6,5.6,61,0.00,,---,0.00,VWS V14.00,2013-01-11 19:17:00,
2013-01-11 11:23:00,51.4,38.0,29.94,NW,315,6.0,7.8,60,0.00,,---,0.00,VWS V14.00,2013-01-11 19:23:00,
2013-01-11 11:28:00,51.6,38.2,29.94,WNW,292,6.0,6.0,60,0.00,,---,0.00,VWS V14.00,2013-01-11 19:28:00,
2013-01-11 11:33:00,52.0,38.5,29.91,NNW,338,7.6,8.1,60,0.00,,---,0.00,VWS V14.00,2013-01-11 19:33:00,
2013-01-11 11:38:00,52.2,38.3,29.91,NNW,338,3.8,6.0,59,0.00,,---,0.00,VWS V14.00,2013-01-11 19:38:00,
2013-01-11 11:44:00,52.3,38.0,29.91,NW,315,3.8,6.3,58,0.00,,---,0.00,VWS V14.00,2013-01-11 19:44:00,
2013-01-11 11:49:00,52.5,37.3,29.91,NW,315,8.5,8.5,56,0.00,,---,0.00,VWS V14.00,2013-01-11 19:49:00,
2013-01-11 11:54:00,52.5,37.3,29.91,WNW,292,4.3,7.8,56,0.00,,---,0.00,VWS V14.00,2013-01-11 19:54:00,
2013-01-11 11:59:00,53.1,37.3,29.91,WNW,292,4.0,6.3,55,0.00,,---,0.00,VWS V14.00,2013-01-11 19:59:00,
2013-01-11 12:04:00,54.5,39.1,29.91,WNW,292,4.3,6.5,56,0.00,,---,0.00,VWS V14.00,2013-01-11 20:04:00,
2013-01-11 12:09:00,55.0,39.2,29.91,NW,315,3.1,7.8,55,0.00,,---,0.00,VWS V14.00,2013-01-11 20:09:00,
2013-01-11 12:14:00,54.9,38.5,29.91,NNW,338,4.3,12.1,54,0.00,,---,0.00,VWS V14.00,2013-01-11 20:14:00,
2013-01-11 12:20:00,55.8,39.4,29.91,WNW,292,6.0,12.1,54,0.00,,---,0.00,VWS V14.00,2013-01-11 20:20:00,
2013-01-11 12:25:00,56.3,39.4,29.91,NW,315,3.1,5.4,53,0.00,,---,0.00,VWS V14.00,2013-01-11 20:25:00,
2013-01-11 12:30:00,56.8,39.9,29.91,NNW,338,6.0,6.0,53,0.00,,---,0.00,VWS V14.00,2013-01-11 20:30:00,
2013-01-11 12:35:00,57.0,39.6,29.91,NNE,22,4.5,4.5,52,0.00,,---,0.00,VWS V14.00,2013-01-11 20:35:00,
2013-01-11 12:41:00,57.6,39.6,29.91,NW,315,6.0,6.3,51,0.00,,---,0.00,VWS V14.00,2013-01-11 20:41:00,
2013-01-11 12:46:00,57.6,38.6,29.88,WNW,292,8.5,13.0,49,0.00,,---,0.00,VWS V14.00,2013-01-11 20:46:00,
2013-01-11 12:52:00,57.9,39.4,29.88,NW,315,10.7,10.7,50,0.00,,---,0.00,VWS V14.00,2013-01-11 20:52:00,
2013-01-11 12:58:00,59.0,40.4,29.88,NNW,338,5.4,11.4,50,0.00,,---,0.00,VWS V14.00,2013-01-11 20:58:00,
2013-01-11 13:03:00,59.2,39.5,29.88,NNW,338,11.9,12.5,48,0.00,,---,0.00,VWS V14.00,2013-01-11 21:03:00,
2013-01-11 13:09:00,60.1,40.9,29.88,WNW,292,6.5,7.6,49,0.00,,---,0.00,VWS V14.00,2013-01-11 21:09:00,
2013-01-11 13:14:00,59.7,40.0,29.88,NNW,338,6.0,6.0,48,0.00,,---,0.00,VWS V14.00,2013-01-11 21:14:00,
2013-01-11 13:19:00,59.5,39.8,29.88,NNW,338,8.7,8.7,48,0.00,,---,0.00,VWS V14.00,2013-01-11 21:19:00,
2013-01-11 13:25:00,59.0,38.8,29.88,NNW,338,5.4,8.7,47,0.00,,---,0.00,VWS V14.00,2013-01-11 21:25:00,
2013-01-11 13:31:00,58.5,38.9,29.85,NNW,338,10.1,14.5,48,0.00,,---,0.00,VWS V14.00,2013-01-11 21:31:00,
2013-01-11 13:36:00,58.3,38.7,29.85,NNW,338,7.2,10.1,48,0.00,,---,0.00,VWS V14.00,2013-01-11 21:36:00,
2013-01-11 13:42:00,58.8,39.7,29.85,NW,315,9.8,9.8,49,0.00,,---,0.00,VWS V14.00,2013-01-11 21:42:00,
2013-01-11 13:48:00,58.5,39.4,29.88,WNW,292,13.2,13.2,49,0.00,,---,0.00,VWS V14.00,2013-01-11 21:48:00,
2013-01-11 13:53:00,58.3,39.2,29.88,NNW,338,5.8,5.8,49,0.00,,---,0.00,VWS V14.00,2013-01-11 21:53:00,
2013-01-11 13:59:00,60.1,41.4,29.88,North,0,6.0,7.2,50,0.00,,---,0.00,VWS V14.00,2013-01-11 21:59:00,
2013-01-11 14:04:00,60.4,41.2,29.88,WNW,292,5.8,9.8,49,0.00,,---,0.00,VWS V14.00,2013-01-11 22:04:00,
2013-01-11 14:09:00,60.4,41.2,29.88,NW,315,7.6,7.6,49,0.00,,---,0.00,VWS V14.00,2013-01-11 22:09:00,
2013-01-11 14:14:00,60.4,40.7,29.88,NNW,338,3.1,8.5,48,0.00,,---,0.00,VWS V14.00,2013-01-11 22:14:00,
2013-01-11 14:19:00,60.1,40.3,29.88,WNW,292,4.0,13.2,48,0.00,,---,0.00,VWS V14.00,2013-01-11 22:19:00,
2013-01-11 14:24:00,59.2,39.0,29.88,NW,315,11.0,11.0,47,0.00,,---,0.00,VWS V14.00,2013-01-11 22:24:00,
2013-01-11 14:30:00,58.5,38.9,29.88,West,270,6.3,6.3,48,0.00,,---,0.00,VWS V14.00,2013-01-11 22:30:00,
2013-01-11 14:34:00,58.3,38.7,29.88,NW,315,9.8,10.7,48,0.00,,---,0.00,VWS V14.00,2013-01-11 22:34:00,
2013-01-11 14:40:00,57.9,38.4,29.88,South,180,5.6,6.3,48,0.00,,---,0.00,VWS V14.00,2013-01-11 22:40:00,
2013-01-11 14:45:00,57.7,38.7,29.88,NW,315,5.8,7.6,49,0.00,,---,0.00,VWS V14.00,2013-01-11 22:45:00,
2013-01-11 14:50:00,57.6,38.6,29.85,NNW,338,6.0,6.5,49,0.00,,---,0.00,VWS V14.00,2013-01-11 22:50:00,
2013-01-11 14:56:00,57.4,38.4,29.85,NW,315,6.5,12.1,49,0.00,,---,0.00,VWS V14.00,2013-01-11 22:56:00,
2013-01-11 15:02:00,56.8,38.4,29.85,WNW,292,9.6,9.6,50,0.00,,---,0.00,VWS V14.00,2013-01-11 23:02:00,
2013-01-11 15:08:00,56.1,37.8,29.85,NW,315,3.6,6.0,50,0.00,,---,0.00,VWS V14.00,2013-01-11 23:08:00,
2013-01-11 15:14:00,55.4,37.6,29.85,SW,225,2.2,3.1,51,0.00,,---,0.00,VWS V14.00,2013-01-11 23:14:00,
2013-01-11 15:19:00,55.2,37.9,29.85,WNW,292,2.5,7.8,52,0.00,,---,0.00,VWS V14.00,2013-01-11 23:19:00,
2013-01-11 15:25:00,55.0,38.2,29.85,WNW,292,5.4,7.4,53,0.00,,---,0.00,VWS V14.00,2013-01-11 23:25:00,
2013-01-11 15:30:00,54.5,37.7,29.85,NNW,338,5.6,13.0,53,0.00,,---,0.00,VWS V14.00,2013-01-11 23:30:00,
2013-01-11 15:35:00,54.1,37.4,29.85,NW,315,12.5,12.5,53,0.00,,---,0.00,VWS V14.00,2013-01-11 23:35:00,
2013-01-11 15:41:00,53.8,37.5,29.85,WNW,292,3.4,4.7,54,0.00,,---,0.00,VWS V14.00,2013-01-11 23:41:00,
2013-01-11 15:46:00,53.4,37.7,29.85,WSW,248,4.7,10.5,55,0.00,,---,0.00,VWS V14.00,2013-01-11 23:46:00,
2013-01-11 15:51:00,52.7,37.0,29.85,NNW,338,3.1,10.7,55,0.00,,---,0.00,VWS V14.00,2013-01-11 23:51:00,
2013-01-11 15:56:00,52.3,36.7,29.85,WNW,292,7.8,7.8,55,0.00,,---,0.00,VWS V14.00,2013-01-11 23:56:00,
2013-01-11 16:01:00,52.0,36.8,29.85,NW,315,2.9,6.5,56,0.00,,---,0.00,VWS V14.00,2013-01-12 00:01:00,
2013-01-11 16:06:00,52.0,37.2,29.85,NNW,338,2.9,7.4,57,0.00,,---,0.00,VWS V14.00,2013-01-12 00:06:00,
2013-01-11 16:11:00,51.8,37.5,29.85,West,270,4.9,7.2,58,0.00,,---,0.00,VWS V14.00,2013-01-12 00:11:00,
2013-01-11 16:16:00,51.8,37.5,29.85,NW,315,3.4,3.4,58,0.00,,---,0.00,VWS V14.00,2013-01-12 00:16:00,
2013-01-11 16:21:00,51.4,37.6,29.85,WSW,248,3.6,3.6,59,0.00,,---,0.00,VWS V14.00,2013-01-12 00:21:00,
2013-01-11 16:27:00,51.1,37.3,29.85,NW,315,3.1,4.0,59,0.00,,---,0.00,VWS V14.00,2013-01-12 00:27:00,
2013-01-11 16:32:00,50.9,37.5,29.85,WNW,292,3.8,6.7,60,0.00,,---,0.00,VWS V14.00,2013-01-12 00:32:00,
2013-01-11 16:37:00,50.5,37.2,29.85,WNW,292,3.8,8.1,60,0.00,,---,0.00,VWS V14.00,2013-01-12 00:37:00,
2013-01-11 16:42:00,50.5,37.6,29.85,NW,315,3.1,4.3,61,0.00,,---,0.00,VWS V14.00,2013-01-12 00:42:00,
2013-01-11 16:48:00,50.4,37.8,29.85,NW,315,5.8,7.4,62,0.00,,---,0.00,VWS V14.00,2013-01-12 00:48:00,
2013-01-11 16:53:00,50.2,37.7,29.85,NW,315,3.4,5.8,62,0.00,,---,0.00,VWS V14.00,2013-01-12 00:53:00,
2013-01-11 16:58:00,50.2,38.1,29.85,West,270,3.4,4.0,63,0.00,,---,0.00,VWS V14.00,2013-01-12 00:58:00,
2013-01-11 17:04:00,50.2,38.1,29.85,WNW,292,4.0,4.3,63,0.00,,---,0.00,VWS V14.00,2013-01-12 01:04:00,
2013-01-11 17:09:00,50.0,37.9,29.85,NNW,338,5.8,8.7,63,0.00,,---,0.00,VWS V14.00,2013-01-12 01:09:00,
2013-01-11 17:15:00,49.8,38.2,29.85,WNW,292,4.3,4.3,64,0.00,,---,0.00,VWS V14.00,2013-01-12 01:15:00,
2013-01-11 17:20:00,49.6,38.0,29.82,North,0,3.6,6.3,64,0.00,,---,0.00,VWS V14.00,2013-01-12 01:20:00,
2013-01-11 17:25:00,49.5,37.8,29.82,NW,315,6.0,6.9,64,0.00,,---,0.00,VWS V14.00,2013-01-12 01:25:00,
2013-01-11 17:30:00,49.3,37.6,29.82,West,270,3.4,3.4,64,0.00,,---,0.00,VWS V14.00,2013-01-12 01:30:00,
2013-01-11 17:35:00,49.1,37.9,29.85,NW,315,2.9,8.1,65,0.00,,---,0.00,VWS V14.00,2013-01-12 01:35:00,
2013-01-11 17:41:00,49.1,37.9,29.85,NNW,338,4.0,7.2,65,0.00,,---,0.00,VWS V14.00,2013-01-12 01:41:00,
2013-01-11 17:46:00,48.9,37.7,29.85,WNW,292,6.0,6.0,65,0.00,,---,0.00,VWS V14.00,2013-01-12 01:46:00,
2013-01-11 17:51:00,48.9,38.1,29.85,NW,315,2.0,4.0,66,0.00,,---,0.00,VWS V14.00,2013-01-12 01:51:00,
2013-01-11 17:56:00,48.7,37.9,29.85,NW,315,3.4,4.0,66,0.00,,---,0.00,VWS V14.00,2013-01-12 01:56:00,
2013-01-11 18:01:00,48.7,37.9,29.85,WNW,292,2.0,2.7,66,0.00,,---,0.00,VWS V14.00,2013-01-12 02:01:00,
2013-01-11 18:06:00,48.7,37.9,29.85,NW,315,3.6,3.6,66,0.00,,---,0.00,VWS V14.00,2013-01-12 02:06:00,
2013-01-11 18:12:00,48.6,38.1,29.85,NW,315,2.7,4.0,67,0.00,,---,0.00,VWS V14.00,2013-01-12 02:12:00,
2013-01-11 18:17:00,48.6,38.1,29.85,NNW,338,2.5,4.0,67,0.00,,---,0.00,VWS V14.00,2013-01-12 02:17:00,
2013-01-11 18:22:00,48.4,37.9,29.85,NW,315,4.9,4.9,67,0.00,,---,0.00,VWS V14.00,2013-01-12 02:22:00,
2013-01-11 18:27:00,48.2,37.8,29.85,NW,315,2.7,4.3,67,0.00,,---,0.00,VWS V14.00,2013-01-12 02:27:00,
2013-01-11 18:32:00,48.2,38.2,29.85,NNW,338,2.5,4.0,68,0.00,,---,0.00,VWS V14.00,2013-01-12 02:32:00,
2013-01-11 18:38:00,48.2,38.2,29.85,NW,315,6.3,7.8,68,0.00,,---,0.00,VWS V14.00,2013-01-12 02:38:00,
2013-01-11 18:43:00,48.2,38.2,29.85,WNW,292,3.6,4.3,68,0.00,,---,0.00,VWS V14.00,2013-01-12 02:43:00,
2013-01-11 18:48:00,48.2,38.2,29.82,WNW,292,5.6,5.8,68,0.00,,---,0.00,VWS V14.00,2013-01-12 02:48:00,
2013-01-11 18:53:00,48.2,38.2,29.82,NW,315,3.6,4.0,68,0.00,,---,0.00,VWS V14.00,2013-01-12 02:53:00,
2013-01-11 18:58:00,48.0,38.3,29.82,WNW,292,3.4,7.4,69,0.00,,---,0.00,VWS V14.00,2013-01-12 02:58:00,
2013-01-11 19:03:00,48.2,38.5,29.85,WNW,292,4.9,5.8,69,0.00,,---,0.00,VWS V14.00,2013-01-12 03:03:00,
2013-01-11 19:08:00,48.2,38.5,29.85,NNW,338,2.7,7.8,69,0.00,,---,0.00,VWS V14.00,2013-01-12 03:08:00,
2013-01-11 19:14:00,48.2,38.5,29.85,NW,315,5.8,5.8,69,0.00,,---,0.00,VWS V14.00,2013-01-12 03:14:00,
2013-01-11 19:20:00,48.2,38.5,29.82,NW,315,3.4,5.4,69,0.00,,---,0.00,VWS V14.00,2013-01-12 03:20:00,
2013-01-11 19:25:00,48.0,38.3,29.82,NNW,338,3.6,4.3,69,0.00,,---,0.00,VWS V14.00,2013-01-12 03:25:00,
2013-01-11 19:30:00,47.8,38.5,29.82,WNW,292,3.8,5.6,70,0.00,,---,0.00,VWS V14.00,2013-01-12 03:30:00,
2013-01-11 19:35:00,47.8,38.5,29.82,WNW,292,3.6,5.8,70,0.00,,---,0.00,VWS V14.00,2013-01-12 03:35:00,
2013-01-11 19:40:00,47.7,38.4,29.82,NW,315,4.3,4.7,70,0.00,,---,0.00,VWS V14.00,2013-01-12 03:40:00,
2013-01-11 19:46:00,47.7,38.4,29.82,NW,315,5.8,5.8,70,0.00,,---,0.00,VWS V14.00,2013-01-12 03:46:00,
2013-01-11 19:51:00,47.7,38.4,29.82,NW,315,3.1,4.9,70,0.00,,---,0.00,VWS V14.00,2013-01-12 03:51:00,
2013-01-11 19:56:00,47.5,38.2,29.82,NW,315,3.6,3.6,70,0.00,,---,0.00,VWS V14.00,2013-01-12 03:56:00,
2013-01-11 20:02:00,47.3,38.0,29.82,WNW,292,4.9,4.9,70,0.00,,---,0.00,VWS V14.00,2013-01-12 04:02:00,
2013-01-11 20:07:00,47.1,37.8,29.82,WNW,292,4.3,5.8,70,0.00,,---,0.00,VWS V14.00,2013-01-12 04:07:00,
2013-01-11 20:12:00,46.9,38.0,29.82,WNW,292,3.8,5.6,71,0.00,,---,0.00,VWS V14.00,2013-01-12 04:12:00,
2013-01-11 20:17:00,46.9,38.0,29.82,WNW,292,4.7,5.8,71,0.00,,---,0.00,VWS V14.00,2013-01-12 04:17:00,
2013-01-11 20:22:00,46.8,37.9,29.82,NW,315,6.0,6.0,71,0.00,,---,0.00,VWS V14.00,2013-01-12 04:22:00,
2013-01-11 20:27:00,46.8,38.2,29.82,North,0,3.1,3.1,72,0.00,,---,0.00,VWS V14.00,2013-01-12 04:27:00,
2013-01-11 20:33:00,46.8,38.2,29.85,NNW,338,0.0,0.0,72,0.00,,---,0.00,VWS V14.00,2013-01-12 04:33:00,
2013-01-11 20:39:00,46.4,37.5,29.85,WNW,292,2.5,2.5,71,0.00,,---,0.00,VWS V14.00,2013-01-12 04:39:00,
2013-01-11 20:44:00,46.2,37.7,29.85,NW,315,4.3,4.3,72,0.00,,---,0.00,VWS V14.00,2013-01-12 04:44:00,
2013-01-11 20:49:00,46.2,37.7,29.85,NNW,338,2.9,2.9,72,0.00,,---,0.00,VWS V14.00,2013-01-12 04:49:00,
2013-01-11 20:54:00,46.2,38.1,29.85,NNW,338,2.5,3.1,73,0.00,,---,0.00,VWS V14.00,2013-01-12 04:54:00,
2013-01-11 21:00:00,46.2,38.1,29.85,NNW,338,2.9,3.4,73,0.00,,---,0.00,VWS V14.00,2013-01-12 05:00:00,
2013-01-11 21:01:00,46.2,38.1,29.85,WNW,292,3.6,3.8,73,0.00,,---,0.00,VWS V14.00,2013-01-12 05:01:00,
2013-01-11 21:06:00,46.2,38.1,29.85,WNW,292,3.1,3.1,73,0.00,,---,0.00,VWS V14.00,2013-01-12 05:06:00,
2013-01-11 21:09:00,46.2,38.1,29.85,NNW,338,2.5,2.9,73,0.00,,---,0.00,VWS V14.00,2013-01-12 05:09:00,
2013-01-11 21:14:00,46.2,38.4,29.85,NNW,338,2.2,2.7,74,0.00,,---,0.00,VWS V14.00,2013-01-12 05:14:00,
2013-01-11 21:20:00,46.2,38.4,29.85,North,0,2.0,2.9,74,0.00,,---,0.00,VWS V14.00,2013-01-12 05:20:00,
2013-01-11 21:25:00,46.2,38.4,29.85,North,0,0.0,0.0,74,0.00,,---,0.00,VWS V14.00,2013-01-12 05:25:00,
2013-01-11 21:30:00,45.9,38.0,29.85,NW,315,3.1,3.4,74,0.00,,---,0.00,VWS V14.00,2013-01-12 05:30:00,
2013-01-11 21:35:00,45.9,38.0,29.85,NNW,338,2.7,2.7,74,0.00,,---,0.00,VWS V14.00,2013-01-12 05:35:00,
2013-01-11 21:40:00,45.9,38.0,29.85,WNW,292,1.3,2.0,74,0.00,,---,0.00,VWS V14.00,2013-01-12 05:40:00,
2013-01-11 21:45:00,45.9,38.0,29.85,NNW,338,1.6,1.6,74,0.00,,---,0.00,VWS V14.00,2013-01-12 05:45:00,
2013-01-11 21:51:00,45.9,38.4,29.85,WNW,292,1.3,1.6,75,0.00,,---,0.00,VWS V14.00,2013-01-12 05:51:00,
2013-01-11 21:57:00,45.9,38.4,29.85,West,270,0.0,0.0,75,0.00,,---,0.00,VWS V14.00,2013-01-12 05:57:00,
2013-01-11 22:02:00,45.9,38.4,29.85,NW,315,0.0,0.0,75,0.00,,---,0.00,VWS V14.00,2013-01-12 06:02:00,
2013-01-11 22:07:00,45.9,38.4,29.85,NW,315,0.0,0.0,75,0.00,,---,0.00,VWS V14.00,2013-01-12 06:07:00,
2013-01-11 22:12:00,45.9,38.7,29.85,NNW,338,0.0,0.0,76,0.00,,---,0.00,VWS V14.00,2013-01-12 06:12:00,
2013-01-11 22:17:00,45.9,38.7,29.85,ENE,68,0.0,0.0,76,0.00,,---,0.00,VWS V14.00,2013-01-12 06:17:00,
2013-01-11 22:22:00,45.9,38.7,29.85,South,180,0.0,0.0,76,0.00,,---,0.00,VWS V14.00,2013-01-12 06:22:00,
2013-01-11 22:28:00,45.5,38.0,29.85,SSW,202,0.0,0.0,75,0.00,,---,0.00,VWS V14.00,2013-01-12 06:28:00,
2013-01-11 22:33:00,45.3,38.2,29.85,SSW,202,0.0,0.0,76,0.00,,---,0.00,VWS V14.00,2013-01-12 06:33:00,
2013-01-11 22:39:00,45.3,37.9,29.85,WNW,292,0.0,0.0,75,0.00,,---,0.00,VWS V14.00,2013-01-12 06:39:00,
2013-01-11 22:44:00,45.0,37.5,29.85,SSW,202,0.0,0.0,75,0.00,,---,0.00,VWS V14.00,2013-01-12 06:44:00,
2013-01-11 22:49:00,44.4,37.0,29.85,SSW,202,0.0,0.0,75,0.00,,---,0.00,VWS V14.00,2013-01-12 06:49:00,
2013-01-11 22:55:00,44.1,36.7,29.85,SSW,202,0.0,0.9,75,0.00,,---,0.00,VWS V14.00,2013-01-12 06:55:00,
2013-01-11 23:01:00,43.7,36.3,29.85,SW,225,0.0,0.0,75,0.00,,---,0.00,VWS V14.00,2013-01-12 07:01:00,
2013-01-11 23:06:00,43.5,36.1,29.85,WNW,292,0.0,1.1,75,0.00,,---,0.00,VWS V14.00,2013-01-12 07:06:00,
2013-01-11 23:11:00,43.3,36.3,29.85,West,270,0.0,0.0,76,0.00,,---,0.00,VWS V14.00,2013-01-12 07:11:00,
2013-01-11 23:16:00,43.3,36.3,29.85,WNW,292,2.0,2.0,76,0.00,,---,0.00,VWS V14.00,2013-01-12 07:16:00,
2013-01-11 23:21:00,43.2,36.1,29.85,WNW,292,0.0,0.0,76,0.00,,---,0.00,VWS V14.00,2013-01-12 07:21:00,
2013-01-11 23:27:00,43.0,36.0,29.85,WNW,292,2.7,3.6,76,0.00,,---,0.00,VWS V14.00,2013-01-12 07:27:00,
2013-01-11 23:32:00,42.8,35.8,29.85,NW,315,0.0,1.6,76,0.00,,---,0.00,VWS V14.00,2013-01-12 07:32:00,
2013-01-11 23:37:00,42.4,35.8,29.85,WNW,292,0.0,0.0,77,0.00,,---,0.00,VWS V14.00,2013-01-12 07:37:00,
2013-01-11 23:43:00,42.3,35.6,29.85,WNW,292,0.0,0.0,77,0.00,,---,0.00,VWS V14.00,2013-01-12 07:43:00,
2013-01-11 23:48:00,42.1,35.4,29.85,NW,315,0.0,0.0,77,0.00,,---,0.00,VWS V14.00,2013-01-12 07:48:00,
2013-01-11 23:53:00,42.1,35.7,29.85,NNW,338,0.0,0.0,78,0.00,,---,0.00,VWS V14.00,2013-01-12 07:53:00,
2013-01-11 23:58:00,41.9,35.5,29.85,NW,315,2.7,2.7,78,0.00,,---,0.00,VWS V14.00,2013-01-12 07:58:00,